Location: Tucson
(32.2217°N, 110.9265°W)
Time: 07:43:43
(UTC-07:00)

Tiros 1 - Pass Details

Date: 25 October 2021
Orbit: 629 x 664 km, 48.4° (Epoch: 26 November)

Event Time Altitude Azimuth Distance (km) Brightness Sun altitude
Rises 14:00:52 0° 318° (NW) 2,964 10.5 37.8°
Reaches altitude 10° 14:04:16 10° 342° (NNW) 2,044 9.5 37.4°
Maximum altitude 14:06:50 14° 16° (NNE) 1,761 9.1 37.1°
Drops below altitude 10° 14:09:23 10° 49° (NE) 2,030 9.3 36.7°
Sets 14:12:44 0° 74° (ENE) 2,930 10.1 36.3°
